When you browse on this site, cookies collect data to enhance your experience and personalize the content and advertising you see.
Visit our Privacy Policy to learn more. By continuing to use the site, you agree to this use of cookies and data.
  • In Hungary
  • List of Countries
  • For 7 days
  • Water Temperature
  • Weather Map
  • News
  • Weather Widgets
  • user-avatar
    Login

    Hourly Weather Zernovoy

    Today, 1 June, Monday

    Time Temperature Precipitation Wind Pressure Humidity
    00:00 +17°C° 0 mm 4 mps 750 mmHg 70%
    01:00 +17°C° 0 mm 3 mps 750 mmHg 72%
    02:00 +16°C° 0 mm 3 mps 750 mmHg 74%
    03:00 +14°C° 0 mm 3 mps 750 mmHg 77%
    04:00 +14°C° 0 mm 3 mps 750 mmHg 79%
    05:00 +16°C° 0 mm 3 mps 750 mmHg 77%
    06:00 +17°C° 0 mm 4 mps 750 mmHg 74%
    07:00 +18°C° 0 mm 4 mps 751 mmHg 71%
    08:00 +19°C° 0 mm 5 mps 751 mmHg 65%
    09:00 +21°C° 0 mm 5 mps 751 mmHg 59%
    10:00 +22°C° 0 mm 5 mps 751 mmHg 52%
    11:00 +23°C° 0 mm 5 mps 751 mmHg 49%
    12:00 +25°C° 0 mm 5 mps 751 mmHg 46%
    13:00 +25°C° 0 mm 5 mps 751 mmHg 43%
    14:00 +25°C° 0 mm 5 mps 751 mmHg 43%
    15:00 +25°C° 0 mm 5 mps 751 mmHg 43%
    16:00 +26°C° 0 mm 5 mps 751 mmHg 43%
    17:00 +25°C° 0 mm 4 mps 751 mmHg 46%
    18:00 +25°C° 0 mm 3 mps 751 mmHg 50%
    19:00 +24°C° 0 mm 2 mps 751 mmHg 54%
    20:00 +21°C° 0 mm 2 mps 751 mmHg 57%
    21:00 +21°C° 0 mm 1 mps 752 mmHg 60%
    22:00 +19°C° 0 mm 1 mps 752 mmHg 62%
    23:00 +19°C° 0 mm 1 mps 752 mmHg 64%

    Tomorrow, 2 June, Tuesday

    Time Temperature Precipitation Wind Pressure Humidity
    00:00 +18°C° 0 mm 1 mps 752 mmHg 67%
    01:00 +18°C° 0 mm 1 mps 751 mmHg 69%
    02:00 +18°C° 0 mm 1 mps 752 mmHg 70%
    03:00 +16°C° 0 mm 1 mps 752 mmHg 72%
    04:00 +16°C° 0 mm 2 mps 752 mmHg 74%
    05:00 +17°C° 0 mm 2 mps 752 mmHg 71%
    06:00 +18°C° 0 mm 2 mps 752 mmHg 69%
    07:00 +19°C° 0 mm 2 mps 752 mmHg 67%
    08:00 +21°C° 0 mm 2 mps 752 mmHg 61%
    09:00 +23°C° 0 mm 2 mps 752 mmHg 55%
    10:00 +25°C° 0 mm 2 mps 752 mmHg 49%
    11:00 +26°C° 0 mm 2 mps 752 mmHg 45%
    12:00 +26°C° 0 mm 2 mps 752 mmHg 41%
    13:00 +27°C° 0 mm 1 mps 752 mmHg 38%
    14:00 +27°C° 0 mm 2 mps 752 mmHg 39%
    15:00 +27°C° 0 mm 2 mps 752 mmHg 39%
    16:00 +27°C° 0 mm 2 mps 752 mmHg 40%
    17:00 +26°C° 0 mm 3 mps 751 mmHg 47%
    18:00 +25°C° 0 mm 4 mps 751 mmHg 55%
    19:00 +23°C° 0 mm 4 mps 751 mmHg 62%
    20:00 +21°C° 0 mm 4 mps 751 mmHg 66%
    21:00 +20°C° 0 mm 4 mps 751 mmHg 69%
    22:00 +19°C° 0 mm 4 mps 751 mmHg 73%
    23:00 +19°C° 0 mm 4 mps 751 mmHg 72%

    Day after tomorrow, 3 June, Wednesday

    Time Temperature Precipitation Wind Pressure Humidity
    00:00 +19°C° 0 mm 4 mps 750 mmHg 70%
    01:00 +19°C° 0 mm 4 mps 750 mmHg 69%
    02:00 +18°C° 0 mm 4 mps 750 mmHg 70%
    03:00 +18°C° 0 mm 4 mps 750 mmHg 71%
    04:00 +17°C° 0 mm 3 mps 750 mmHg 72%
    05:00 +18°C° 0 mm 4 mps 750 mmHg 70%
    06:00 +19°C° 0 mm 4 mps 750 mmHg 69%
    07:00 +20°C° 0 mm 5 mps 750 mmHg 67%
    08:00 +22°C° 0 mm 5 mps 749 mmHg 61%
    09:00 +23°C° 0 mm 5 mps 749 mmHg 55%
    10:00 +26°C° 0 mm 6 mps 749 mmHg 49%
    11:00 +27°C° 0 mm 6 mps 749 mmHg 47%
    12:00 +28°C° 0 mm 5 mps 749 mmHg 45%
    13:00 +29°C° 0 mm 5 mps 749 mmHg 42%
    14:00 +29°C° 0 mm 5 mps 749 mmHg 43%
    15:00 +29°C° 0 mm 5 mps 749 mmHg 43%
    16:00 +29°C° 0 mm 5 mps 749 mmHg 43%
    17:00 +28°C° 0 mm 5 mps 748 mmHg 48%
    18:00 +27°C° 0 mm 5 mps 748 mmHg 53%
    19:00 +26°C° 0 mm 4 mps 748 mmHg 58%
    20:00 +25°C° 0 mm 5 mps 748 mmHg 62%
    21:00 +22°C° 0 mm 6 mps 748 mmHg 67%
    22:00 +21°C° 0 mm 7 mps 747 mmHg 71%
    23:00 +20°C° 0 mm 7 mps 747 mmHg 72%

    4 June, Thursday

    Time Temperature Precipitation Wind Pressure Humidity
    00:00 +20°C° 0 mm 7 mps 747 mmHg 73%
    01:00 +19°C° 0 mm 6 mps 746 mmHg 74%
    02:00 +19°C° 0.1 mm 6 mps 746 mmHg 77%
    03:00 +17°C° 0.1 mm 6 mps 746 mmHg 79%
    04:00 +17°C° 0.1 mm 6 mps 746 mmHg 82%
    05:00 +19°C° 0.6 mm 6 mps 746 mmHg 79%
    06:00 +19°C° 0.6 mm 6 mps 746 mmHg 76%
    07:00 +20°C° 0.6 mm 6 mps 746 mmHg 73%
    08:00 +21°C° 0.3 mm 6 mps 746 mmHg 71%
    09:00 +21°C° 0.3 mm 6 mps 746 mmHg 68%
    10:00 +22°C° 0.3 mm 6 mps 746 mmHg 65%
    11:00 +23°C° 0 mm 6 mps 746 mmHg 64%
    12:00 +23°C° 0 mm 5 mps 746 mmHg 63%
    13:00 +23°C° 0 mm 5 mps 746 mmHg 62%
    14:00 +23°C° 0 mm 6 mps 747 mmHg 63%
    15:00 +23°C° 0 mm 7 mps 747 mmHg 64%
    16:00 +23°C° 0 mm 7 mps 747 mmHg 65%
    17:00 +23°C° 0 mm 7 mps 747 mmHg 66%
    18:00 +22°C° 0 mm 7 mps 747 mmHg 68%
    19:00 +21°C° 0 mm 7 mps 747 mmHg 70%
    20:00 +21°C° 0 mm 6 mps 747 mmHg 70%
    21:00 +20°C° 0 mm 5 mps 748 mmHg 71%
    22:00 +19°C° 0 mm 5 mps 748 mmHg 71%
    23:00 +19°C° 0 mm 5 mps 748 mmHg 68%

    5 June, Friday

    Time Temperature Precipitation Wind Pressure Humidity
    00:00 +20°C° 0 mm 5 mps 748 mmHg 64%
    01:00 +20°C° 0 mm 5 mps 748 mmHg 61%
    02:00 +19°C° 0 mm 6 mps 748 mmHg 60%
    03:00 +19°C° 0 mm 6 mps 748 mmHg 59%
    04:00 +18°C° 0 mm 7 mps 749 mmHg 59%
    05:00 +18°C° 0.1 mm 7 mps 749 mmHg 60%
    06:00 +17°C° 0.1 mm 7 mps 749 mmHg 62%
    07:00 +17°C° 0.1 mm 7 mps 749 mmHg 64%
    08:00 +18°C° 0 mm 7 mps 750 mmHg 61%
    09:00 +20°C° 0 mm 7 mps 750 mmHg 59%
    10:00 +21°C° 0 mm 7 mps 750 mmHg 57%
    11:00 +21°C° 0 mm 7 mps 751 mmHg 57%
    12:00 +21°C° 0 mm 7 mps 751 mmHg 58%
    13:00 +21°C° 0 mm 6 mps 751 mmHg 58%
    14:00 +22°C° 0.1 mm 6 mps 751 mmHg 58%
    15:00 +22°C° 0.1 mm 5 mps 751 mmHg 57%
    16:00 +23°C° 0.1 mm 5 mps 751 mmHg 57%
    17:00 +22°C° 0 mm 5 mps 751 mmHg 58%
    18:00 +21°C° 0 mm 6 mps 751 mmHg 60%
    19:00 +20°C° 0 mm 6 mps 751 mmHg 61%
    20:00 +19°C° 0.1 mm 6 mps 751 mmHg 59%
    21:00 +19°C° 0.1 mm 6 mps 751 mmHg 58%
    22:00 +17°C° 0.1 mm 6 mps 751 mmHg 56%
    23:00 +17°C° 0.5 mm 5 mps 751 mmHg 62%

    6 June, Saturday

    Time Temperature Precipitation Wind Pressure Humidity
    00:00 +16°C° 0.5 mm 5 mps 751 mmHg 67%
    01:00 +15°C° 0.5 mm 4 mps 751 mmHg 73%
    02:00 +14°C° 0.3 mm 4 mps 751 mmHg 75%
    03:00 +14°C° 0.3 mm 4 mps 751 mmHg 78%
    04:00 +14°C° 0.3 mm 4 mps 751 mmHg 81%
    05:00 +14°C° 0.4 mm 4 mps 751 mmHg 83%
    06:00 +14°C° 0.4 mm 4 mps 751 mmHg 85%
    07:00 +14°C° 0.4 mm 4 mps 751 mmHg 88%
    08:00 +15°C° 0.3 mm 4 mps 751 mmHg 83%
    09:00 +17°C° 0.3 mm 3 mps 752 mmHg 78%
    10:00 +19°C° 0.3 mm 3 mps 752 mmHg 73%
    11:00 +20°C° 0.2 mm 3 mps 752 mmHg 70%
    12:00 +20°C° 0.2 mm 2 mps 752 mmHg 67%
    13:00 +21°C° 0.2 mm 2 mps 752 mmHg 64%
    14:00 +21°C° 1.2 mm 2 mps 752 mmHg 64%
    15:00 +21°C° 1.2 mm 2 mps 752 mmHg 64%
    16:00 +23°C° 1.2 mm 2 mps 752 mmHg 64%
    17:00 +21°C° 0.9 mm 2 mps 752 mmHg 67%
    18:00 +21°C° 0.9 mm 2 mps 752 mmHg 71%
    19:00 +20°C° 0.9 mm 2 mps 752 mmHg 74%
    20:00 +19°C° 0.1 mm 2 mps 753 mmHg 79%
    21:00 +17°C° 0.1 mm 3 mps 753 mmHg 84%
    22:00 +16°C° 0.1 mm 3 mps 753 mmHg 89%
    23:00 +14°C° 0 mm 3 mps 753 mmHg 89%
    Show more